Regional Weather Roundup
Issued by NWS Grand Forks, ND

Home | Current Version | Previous Version | Graphics & Text | Print | Product List | Glossary On
Versions: 1 2 3 4 5 6 7 8 9 10 11 12 13 14 15 16 17 18 19 20 21 22 23 24 25 26 27 28 29 30 31 32 33 34 35 36 37 38 39 40 41 42 43 44 45 46 47 48 49 50
000
ASUS43 KFGF 311610
RWRFGF
PRAIRIE TO PINES  WEATHER ROUNDUP
NATIONAL WEATHER SERVICE EASTERN NORTH DAKOTA/GRAND FORKS ND
1000 AM CST SAT JAN 31 2015

 **SATELLITE DATA USED TO AUGMENT SKY COVER AT AUTOMATED STATIONS**
 *****  WEATHER ACROSS EASTERN NORTH DAKOTA  *****

CITY           SKY/WX    TMP DP  RH WIND       PRES   REMARKS
GRAND FORKS    CLOUDY     4  -6  63 N17G25    30.45R WCI -16
GRAND FRKS AFB CLOUDY     2  -7  66 N17G26    30.45R WCI -18
GRAND FRKS NWS   N/A      3 N/A N/A N21         N/A  WCI -18
DEVILS LAKE    CLOUDY     1  -8  66 NE16      30.38R WCI -18
FARGO          SUNNY     10  -1  61 N21       30.36R WCI  -9
WAHPETON ARPT  MOSUNNY   14   5  67 N18G25    30.31R WCI  -3
$$

 ***** WEATHER ACROSS CENTRAL AND WESTERN NORTH DAKOTA  *****

CITY           SKY/WX    TMP DP  RH WIND       PRES   REMARKS
BISMARCK       LGT SNOW  13   9  84 NE16      30.28R FOG     WCI  -3
MINOT          LGT SNOW   6   0  76 NE14      30.35S WCI -11
JAMESTOWN      MOSUNNY   10   3  73 NE17      30.31R WCI  -8
MINOT AFB      LGT SNOW   5   1  85 NE16      30.37R FOG     WCI -14
GARRISON         N/A      8   0  69 E15       30.30R WCI  -9
WILLISTON      CLOUDY    13   7  77 E20       30.26R WCI  -5
DICKINSON      FOG       20  17  88 E16G24    30.11S VSB 3/4 WCI   6
HETTINGER      FOG       20  18  92 E16       30.10F VSB 1/2 WCI   6
$$

 *****  OTHER AIRPORT OBSERVATIONS IN OUR AREA  *****

CITY           SKY/WX    TMP DP  RH WIND       PRES   REMARKS
WALHALLA       NOT AVBL
GRAFTON AIRPOR NOT AVBL
VALLEY CITY AR NOT AVBL
CANDO          NOT AVBL
CAVALIER APRT  NOT AVBL
GWINNER        NOT AVBL
SHEYENNE NWR     N/A     11  -4  52 N18       29.95S WCI  -7
ROLLA          NOT AVBL
 ***** THE ABOVE OBSERVATIONS ARE NON NWS ARE NOT QUALITY
       CONTROLLED AND MAY MIS-REPORT RAIN FOR SNOW...
$$

  *****  WEATHER ACROSS NORTHERN MINNESOTA  *****

CITY           SKY/WX    TMP DP  RH WIND       PRES   REMARKS
FLAG ISLAND    MOSUNNY   -6  -9  84 N14       30.40R WCI -26
WARROAD        MOSUNNY   -2  -9  71 N9        30.41R WCI -18
ROSEAU         MOSUNNY   -2  -9  71 N12       30.42R WCI -20
HALLOCK        MOSUNNY   -2  -9  71 N17       30.48R WCI -24
THF RVR FALLS  SUNNY      3  -6  66 N18       30.39R WCI -17
BAUDETTE       PTSUNNY   -2  -8  76 NW17      30.37R WCI -23
WASKISH        MOSUNNY    3  -4  72 NW10      30.34R WCI -12
CROOKSTON      SUNNY      5  -2  72 N18G24    30.43R WCI -15
STEPHEN NDAWN    N/A      0  -8  71 N20         N/A  WCI -22
GREENBUSH NDAW   N/A     -2  -9  71 N15         N/A  WCI -22
$$
  *****  WEATHER ACROSS CENTRAL AND WEST MINNESOTA  *****

CITY           SKY/WX    TMP DP  RH WIND       PRES   REMARKS
FOSSTON        SUNNY      7   0  72 N16G24    30.34R WCI -11
BEMIDJI        SUNNY      6  -5  60 N13       30.29R WCI -10
PARK RAPIDS    CLOUDY    13  -6  42 N13       30.25R WCI  -2
ELBOW LAKE     CLOUDY    18  14  85 N13       30.24R WCI   5
WADENA         FLURRIES  19  14  79 N10       30.23R WCI   8
DETROIT LAKES  MOSUNNY   14   9  79 N8        30.29R WCI   3
MOORHEAD       SUNNY     10   0  61 N22G28      N/A  WCI  -9
FERGUS FALLS   FLURRIES  16  10  79 N10G17    30.31R WCI   3
MORRIS MN      CLOUDY    21  19  93 N12       30.22R WCI   9
STAPLES        CLOUDY    19  12  73 N12       30.23R WCI   7
$$
  *****  WEATHER ELSEWHERE ACROSS MINNESOTA  *****

CITY           SKY/WX    TMP DP  RH WIND       PRES   REMARKS
DULUTH         FLURRIES  19  10  68 N12       30.19R WCI   7
INTRNTL FALLS  CLOUDY     6  -1  73 N10       30.32R HAZE    WCI  -9
ELY            MOSUNNY   10   1  67 N9G16     30.22R WCI  -2
CLOQUET        FLURRIES  19  12  73 N12G17    30.20R WCI   7
WHEATON        CLOUDY    14  10  85 N17       30.29S WCI  -3
BRAINERD       PTSUNNY   21  12  68 N12       30.22R WCI   9
HIBBING        PTSUNNY   14   4  64 N14       30.23R WCI  -1
ALEXANDRIA     CLOUDY    22  17  81 NE13      30.21R WCI  10
SAINT CLOUD    CLOUDY    26  19  74 N9        30.21R WCI  17
MINNEAPOLIS    CLOUDY    28  22  78 NE9       30.19R WCI  19
$$

  *****  WEATHER ACROSS SOUTH DAKOTA  *****

CITY           SKY/WX    TMP DP  RH WIND       PRES   REMARKS
SIOUX FALLS    CLOUDY    26  24  92 NE17      30.14S FOG     WCI  13
BROOKINGS      NOT AVBL
WATERTOWN      CLOUDY    17  14  88 NE18      30.17R FOG     WCI   1
HURON          CLOUDY    24  20  84 NE17      30.18S WCI  11
SISSETON         N/A     16  12  84 NE18      30.26R WCI   0
ABERDEEN       CLOUDY    18  12  77 NE20      30.25R WCI   2
MITCHELL       CLOUDY    27  25  92 NE17      30.15S FOG     WCI  14
PIERRE         CLOUDY    23  22  96 E15       30.14S FOG     WCI  10
MOBRIDGE       CLOUDY    23  19  85 NE15      30.16R WCI  10
RAPID CITY     CLOUDY    27  25  92 E9        30.02R WCI  18
$$

  *****  SOME WEATHER IN NEARBY STATES *****

CITY           SKY/WX    TMP DP  RH WIND       PRES   REMARKS
GLASGOW MT     SNOW      19  15  84 E22G28    30.13S VSB 1/2 WCI   2
GREAT FALLS MT SNOW      21  19  93 N16       30.14R VSB 1/4 WCI   7
CHEYENNE WY    CLOUDY    30  25  81 N10       29.89S WCI  21
SCOTTSBLUFF NE LGT SNOW  33  28  81 CALM      29.95R
OMAHA NE       LGT RAIN  36  34  92 S10       30.15F
DES MOINES IA  CLOUDY    39  33  79 SW6       30.19S
DAVENPORT IA   CLOUDY    34  26  72 SW13      30.22S WCI  25
CHICAGO IL     PTSUNNY   31  20  63 SW12      30.21F WCI  22
EAU CLAIRE WI  CLOUDY    25  18  74 N3        30.18R
LA CROSSE WI   CLOUDY    27  18  69 CALM      30.19R
$$

  *****  SOME NATIONAL WEATHER *****

CITY           SKY/WX    TMP DP  RH WIND       PRES   REMARKS
LA GUARDIA NY  SUNNY     19   2  47 NW24G35   30.14S WCI   2
RALEIGH NC     PTSUNNY   37   5  26 W10       30.38R
ATLANTA GA     PTSUNNY   43  17  35 S6        30.38S
NEW ORLEANS LA MOSUNNY   54  41  61 NE9       30.32R
OKLAHOMA CITY  LGT RAIN  42  35  76 S12       30.16S
ALBUQUERQUE NM LGT RAIN  33  32  96 CALM      29.94S FOG
SALT LAKE CITY PTSUNNY   38  31  76 NW6       30.02R
LOS ANGELES CA PTSUNNY   57  55  93 CALM      29.89R FOG
BOISE ID       CLEAR     27  24  89 CALM      30.15R
SEATTLE WA     FOG       39  38  96 N6        30.24S VSB 1/4
$$

*** WEATHER ACROSS MANITOBA...SASKATCHEWAN AND ONTARIO ***
                ***ONTARIO***

CITY           SKY/WX    TMP DP  RH WIND       PRES   REMARKS
GERALDTON      SNOWSHWR  -2  -9  71 N15G22    30.17R DRFTSNOWWCI -22
THUNDER BAY    PTSUNNY   12   0  57 N15G23    30.24R WCI  -4
SIOUX LOOKOUT  MOSUNNY   -9 -20  59 N7G17     30.33R WCI -24
TORONTO        PTSUNNY   18   9  68 SW6       30.27F WCI   9
BIG TROUT LK   CLOUDY   -26 -33  68 NW14G23   30.33R HAZE    WCI -51
PICKLE LAKE    CRYSTALS -18 -27  63 NW7       30.31R WCI -35
DRYDEN         LGT SNOW  -8 -15  71 N13G20    30.34R WCI -28
KENORA         MOSUNNY   -8 -15  71 N15       30.37R WCI -29
$$
                *** MANITOBA***

CITY           SKY/WX    TMP DP  RH WIND       PRES   REMARKS
BRANDON        PTSUNNY   -9 -17  70 NE15      30.52R WCI -31
DAUPHIN        SUNNY    -15 -22  70 N13       30.62R WCI -37
ISLAND LAKE    SUNNY    -24 -33  62 NW9       30.47R WCI -45
PILOT MOUND      N/A     -9 -15  77 N13G20      N/A  WCI -30
THE PAS        PTCLDY   -24 -31  69 NW8       30.65R WCI -43
THOMPSON       CRYSTALS -26 -35  62 NW9       30.53R WCI -47
WINNIPEG       CRYSTALS -11 -18  70 N17G23    30.56R WCI -35
LYNN LAKE      CLEAR    -27 -35  68 NW10      30.52S WCI -50
CHURCHILL      BLWGSNOW -22 -29  69 NW22G32   30.34R VSB 3/4 WCI -52
GILLAM         CLEAR    -27 -35  68 W13       30.43R WCI -53
$$
                ***SASKATCHEWAN***

CITY           SKY/WX    TMP DP  RH WIND       PRES   REMARKS
ESTEVAN        LGT SNOW   5   0  78 E17       30.36R DRFTSNOWWCI -14
KINDERSLEY     CLOUDY    -4  -9  77 NE16      30.47R WCI -25
LLOYDMINSTER   MOCLDY    -9 -18  64 NE7       30.53S WCI -24
PRINCE ALBERT  MOCLDY   -20 -26  76 NE2       30.65R
REGINA         PTSUNNY    1  -6  71 NE17      30.42R WCI -19
YORKTON        SUNNY    -15 -22  70 N7        30.52R WCI -31
N. BATTLEFORD  CLEAR     -9 -15  77 NE9       30.59S WCI -27
LA RONGE       CLEAR    -29 -35  75 W3        30.67S
SASKATOON      MOCLDY   -11 -17  77 NE13      30.59R WCI -32
SWIFT CURRENT  FLURRIES   1  -2  85 NE17G23   30.32R WCI -19
$$
NOTE: THESE ARE AUTOMATED STATIONS WITH LIMITED QUALITY CONTROL
      "FAIR" INDICATES FEW OR NO CLOUDS BELOW 12,000 FEET WITH NO
      SIGNIFICANT WEATHER AND/OR OBSTRUCTIONS TO VISIBILITY.
      SKY/WX - SKY CONDITION AND SIGNIFICANT WEATHER.
      TMP - AIR TEMPERATURE.    DP   - DEWPOINT TEMPERATURE.
      RH  - RELATIVE HUMIDITY.  PRES - PRESSURE.
      HX  - HEAT INDEX.         WCI  - WIND CHILL INDEX.
$



USA.gov is the U.S. government's official web portal to all federal, state and local government web resources and services.